User: anonymous   Login
Location: Pine Mountain Observatory
(43.7910°N, 120.9377°W)
Time: 09:03:36
(UTC-07:00)
Language:

Cosmos 1867 - Orbit

View from above orbital plane
View from above orbital plane
View from above satellite
View from above satellite

Ground track
Ground track

The orbit data is extracted from the following two-line orbital elements,

1 18187U 87060A   15148.41368631 -.00000035  00000-0  24692-4 0  9993
2 18187 065.0090 169.8792 0015642 281.4152 078.5175 14.31057043456567
Epoch (UTC): 28 May 2015 09:55:42
Eccentricity: 0.0015642
inclination: 65.0090°
perigee height: 777 km
apogee height: 799 km
right ascension of ascending node: 169.8792°
argument of perigee: 281.4152°
revolutions per day: 14.31057043
mean anomaly at epoch: 78.5175°
orbit number at epoch: 45656

The dashed part of the orbit path shows where the satellite is in the earth's shadow,  

DLR